Flag for Germany Weather past 2 weeks in Weißenfels, Saxony-Anhalt, Germany

Now
38 °F

Rain. Low clouds.


Feels Like: 31 °F
Forecast: 32 / 39 °F
Wind: 13 mph from Southwest

Location: Leipzig-Schkeuditz

Current Time: Jan 28, 2015 at 9:34:35 PM

Latest Report: Jan 28, 2015 at 9:00 PM


Visibility: 9 mi

Pressure: 29.41 "Hg

Humidity: 85%

Dew point: 34 °F

Location of WeißenfelsLocation

Historic Weather in Weißenfels — Graph

°F

Weißenfels temperature yesterday

Maximum temperature yesterday: 40 °F (at 3:00 PM)
Minimum temperature yesterday: 35 °F (at 11:00 PM)
Average temperature yesterday: 37 °F

Past Weeks' High & Low Weather Summary

 TemperatureHumidityPressure
High53 °F (Jan 13, 8:00 PM)100% (Jan 22, 5:00 PM)30.34 "Hg (Jan 22, 5:00 PM)
Low26 °F (Jan 19, 2:00 AM)49% (Jan 13, 8:00 PM)29.44 "Hg (Jan 28, 8:00 PM)
Average36 °F88%29.99 "Hg
* Reported Jan 13 8:00 PM — Jan 28 8:00 PM, Weißenfels, Weather by CustomWeather, © 2014

Note: Actual official high and low records may vary slightly from our data, if they occured in-between our weather recording intervals... More about our weather records

Advertising

Weißenfels weather history for previous 24 hours

 ConditionsComfort  
Time TempWeatherWind HumidityBarometerVisibility
8:00 PM
Jan 28
40 °FOvercast.9 mph69%29.44 "Hg25 mi
6:00 PM40 °FOvercast.12 mph72%29.56 "Hg25 mi
5:00 PM39 °FOvercast.10 mph76%29.61 "Hg25 mi
3:00 PM40 °FOvercast.10 mph72%29.72 "Hg25 mi
2:00 PM41 °FOvercast.10 mph70%29.76 "Hg19 mi
1:00 PM41 °FOvercast.10 mph71%29.83 "Hg17 mi
12:00 PM40 °FOvercast.8 mph76%29.89 "Hg16 mi
11:00 AM40 °FOvercast.8 mph76%29.93 "Hg14 mi
9:00 AM36 °FOvercast.6 mph91%29.98 "Hg11 mi
8:00 AM34 °FOvercast.6 mph94%30.00 "Hg11 mi
7:00 AM35 °FOvercast.5 mph93%30.02 "Hg12 mi
6:00 AM35 °FOvercast.6 mph91%30.03 "Hg22 mi
5:00 AM35 °FOvercast.5 mph92%30.05 "Hg25 mi
3:00 AM35 °FOvercast.6 mph93%30.09 "Hg28 mi
2:00 AM35 °FOvercast.6 mph93%30.09 "Hg28 mi
1:00 AM35 °FOvercast.5 mph92%30.10 "Hg28 mi
12:00 AM35 °FOvercast.6 mph91%30.09 "Hg28 mi
11:00 PM
Jan 27
35 °FOvercast.5 mph92%30.09 "Hg25 mi
9:00 PM37 °FOvercast.6 mph84%30.09 "Hg28 mi
Weather by CustomWeather, © 2014

See weather overviewHow to use our weather pages